Weather History for Trinidad, CO

Change the Weather History Date:

Friday, May 24, 2013

  Actual Average Record
Temperature  
Mean Temperature 73 °F 62 °F  
Max Temperature 87 °F 77 °F 92 °F (1967)
Min Temperature 58 °F 46 °F 35 °F (1971)
Degree Days  
Heating Degree Days 0 5  
Month to date heating degree days 226 178  
Since 1 July heating degree days 5434 5468  
Cooling Degree Days 8 1  
Month to date cooling degree days 28 13  
Year to date cooling degree days 32 15  
Growing Degree Days 20 (Base 50)    
Moisture  
Dew Point 43 °F    
Average Humidity 44    
Maximum Humidity 72    
Minimum Humidity 15    
Precipitation  
Precipitation T in 0.06 in 0.70 in (1982)
Month to date precipitation 0.51 1.19  
Year to date precipitation 1.94 4.10  
Sea Level Pressure  
Sea Level Pressure 29.88 in    
Wind  
Wind Speed 18 mph (South)    
Max Wind Speed 37 mph    
Max Gust Speed 45 mph    
Visibility 10 miles    
Events Thunderstorm    
T = Trace of Precipitation, MM = Missing Value Source: NWS Daily Summary

Daily Weather History Graph

Daily Weather History Graph

Search for Another Location

Airport:

Trip Planner

Search our weather history database for the weather conditions in past years. The results will help you decide how hot, cold, wet, or windy it might be!

Date:

Astronomy

May. 24, 2013 Rise Set
Actual Time 5:42 AM MDT 8:06 PM MDT
Civil Twilight 5:12 AM MDT 8:36 PM MDT
Nautical Twilight 4:35 AM MDT 9:13 PM MDT
Astronomical Twilight 3:54 AM MDT 9:54 PM MDT
Moon 7:52 PM MDT (5/24) 5:15 AM MDT (5/24)
Length of Visible Light 15h 24m
Length of Day
14h 24m
Full, 100% of the Moon is Illuminated
May 24
Full
May 24
Full
May 31
Last Quarter
Jun 8
New
Jun 16
First Quarter

Hourly Weather History & Observations

Time (MDT) Temp. Dew Point Humidity Pressure Visibility Wind Dir Wind Speed Gust Speed Precip Events Conditions
12:54 AM 63.0 °F 50.0 °F 63% 29.92 in 10.0 mi South 13.8 mph 26.5 mph N/A Thunderstorm Mostly Cloudy
1:13 AM 64.4 °F 48.2 °F 56% 30.12 in 10.0 mi South 20.7 mph 28.8 mph N/A   Mostly Cloudy
1:54 AM 61.0 °F 48.9 °F 64% 29.92 in 10.0 mi South 6.9 mph 21.9 mph 0.00 in   Partly Cloudy
2:54 AM 61.0 °F 48.0 °F 62% 29.91 in 10.0 mi East 9.2 mph - N/A   Mostly Cloudy
3:54 AM 61.0 °F 48.0 °F 62% 29.91 in 10.0 mi ESE 5.8 mph - N/A   Mostly Cloudy
4:54 AM 59.0 °F 48.9 °F 69% 29.90 in 10.0 mi SW 15.0 mph 19.6 mph N/A   Overcast
5:01 AM 59.0 °F 48.2 °F 67% 30.11 in 10.0 mi SW 16.1 mph - N/A   Overcast
5:12 AM 59.0 °F 48.2 °F 67% 30.11 in 10.0 mi SW 16.1 mph 29.9 mph N/A   Overcast
5:54 AM 57.9 °F 48.9 °F 72% 29.91 in 10.0 mi South 13.8 mph - N/A   Overcast
6:54 AM 62.1 °F 48.0 °F 60% 29.89 in 10.0 mi Variable 6.9 mph 17.3 mph N/A   Clear
7:54 AM 64.9 °F 48.9 °F 56% 29.91 in 10.0 mi Variable 6.9 mph 16.1 mph N/A   Clear
8:54 AM 70.0 °F 46.9 °F 44% 29.90 in 10.0 mi SE 4.6 mph - N/A   Clear
9:26 AM 71.6 °F 46.4 °F 41% 30.12 in 10.0 mi WSW 18.4 mph 29.9 mph N/A   Clear
9:54 AM 73.0 °F 44.1 °F 35% 29.91 in 10.0 mi WSW 20.7 mph 28.8 mph N/A   Clear
10:54 AM 77.0 °F 43.0 °F 30% 29.88 in 10.0 mi WSW 25.3 mph 32.2 mph N/A   Clear
11:54 AM 82.0 °F 30.0 °F 15% 29.86 in 10.0 mi SW 17.3 mph 23.0 mph N/A   Clear
12:54 PM 82.9 °F 37.0 °F 19% 29.81 in 10.0 mi South 21.9 mph 26.5 mph N/A   Clear
1:54 PM 84.0 °F 39.0 °F 20% 29.80 in 10.0 mi South 24.2 mph 33.4 mph N/A   Clear
2:54 PM 84.0 °F 39.9 °F 21% 29.79 in 10.0 mi South 27.6 mph 38.0 mph N/A   Clear
3:54 PM 82.9 °F 41.0 °F 23% 29.76 in 10.0 mi South 29.9 mph 38.0 mph N/A   Clear
4:54 PM 84.0 °F 32.0 °F 15% 29.75 in 10.0 mi South 25.3 mph 41.4 mph N/A   Clear
5:54 PM 82.0 °F 37.9 °F 21% 29.75 in 10.0 mi South 32.2 mph 44.9 mph N/A   Clear
6:54 PM 79.0 °F 37.9 °F 23% 29.74 in 10.0 mi South 26.5 mph 35.7 mph N/A   Clear
7:54 PM 73.9 °F 42.1 °F 32% 29.78 in 10.0 mi South 28.8 mph 41.4 mph N/A   Clear
8:54 PM 71.1 °F 37.9 °F 30% 29.79 in 10.0 mi South 18.4 mph 23.0 mph N/A   Clear
9:54 PM 71.1 °F 37.9 °F 30% 29.81 in 10.0 mi South 20.7 mph 35.7 mph N/A   Clear
10:54 PM 69.1 °F 39.9 °F 35% 29.83 in 10.0 mi South 9.2 mph - N/A   Clear
11:54 PM 64.0 °F 41.0 °F 43% 29.85 in 10.0 mi East 13.8 mph - N/A   Clear